Weather History for Cottonwood Pass, CO

Change the Weather History Date:

Saturday, January 11, 2014

  Actual Average Record
Temperature  
Mean Temperature 34 °F -  
Max Temperature 42 °F - - ()
Min Temperature 26 °F - - ()
Degree Days  
Heating Degree Days 31    
Moisture  
Dew Point 14 °F    
Average Humidity 44    
Maximum Humidity 55    
Minimum Humidity 31    
Precipitation  
Precipitation 0.00 in - - ()
Sea Level Pressure  
Sea Level Pressure 30.01 in    
Wind  
Wind Speed 17 mph (WNW)    
Max Wind Speed 32 mph    
Max Gust Speed 75 mph    
Visibility 10 miles    
Events      
T = Trace of Precipitation, MM = Missing Value Source: NWS Daily Summary

Daily Weather History Graph

Daily Weather History Graph

Search for Another Location

Airport:

Trip Planner

Search our weather history database for the weather conditions in past years. The results will help you decide how hot, cold, wet, or windy it might be!

Date:

Astronomy

Jan. 11, 2014 Rise Set
Actual Time 7:22 AM MST 5:03 PM MST
Civil Twilight 6:53 AM MST 5:32 PM MST
Nautical Twilight 6:20 AM MST 6:05 PM MST
Astronomical Twilight 5:48 AM MST 6:37 PM MST
Moon 1:48 PM MST (1/11) 3:30 AM MST (1/11)
Length of Visible Light 10h 39m
Length of Day
9h 40m
Waxing Gibbous, 83% of the Moon is Illuminated
Jan 11
Waxing Gibbous
Jan 15
Full
Jan 23
Last Quarter
Jan 30
New
Feb 6
First Quarter

Hourly Weather History & Observations

Time (MST) Temp. Windchill Dew Point Humidity Pressure Visibility Wind Dir Wind Speed Gust Speed Precip Events Conditions
12:10 AM 26.6 °F 11.4 °F 10.4 °F 51% 29.80 in 7.0 mi WNW 25.3 mph 74.8 mph N/A   Overcast
12:32 AM 26.6 °F 9.8 °F 10.4 °F 51% 29.81 in 10.0 mi WNW 32.2 mph 63.3 mph N/A   Overcast
12:52 AM 26.6 °F 15.7 °F 12.2 °F 55% 29.81 in 10.0 mi NNW 12.7 mph 40.3 mph N/A   Overcast
1:11 AM 26.6 °F 13.4 °F 12.2 °F 55% 29.82 in 10.0 mi NNW 18.4 mph 34.5 mph N/A   Mostly Cloudy
1:32 AM 28.4 °F 16.2 °F 12.2 °F 51% 29.82 in 10.0 mi NW 17.3 mph 44.9 mph N/A   Clear
1:50 AM 28.4 °F 14.4 °F 12.2 °F 51% 29.85 in 10.0 mi WNW 23.0 mph 71.3 mph N/A   Clear
2:12 AM 28.4 °F 14.1 °F 12.2 °F 51% 29.87 in 10.0 mi NW 24.2 mph 59.8 mph N/A   Clear
2:32 AM 30.2 °F 15.4 °F 10.4 °F 44% 29.89 in 10.0 mi NW 28.8 mph 67.9 mph N/A   Clear
2:54 AM 30.2 °F 14.7 °F 10.4 °F 44% 29.91 in 10.0 mi West 32.2 mph 74.8 mph N/A   Clear
3:14 AM 30.2 °F 16.8 °F 10.4 °F 44% 29.96 in 10.0 mi WSW 23.0 mph 48.3 mph N/A   Clear
3:32 AM 30.2 °F 14.7 °F 10.4 °F 44% 29.96 in 10.0 mi WSW 32.2 mph 63.3 mph N/A   Clear
3:52 AM 30.2 °F 17.8 °F 10.4 °F 44% 29.98 in 10.0 mi West 19.6 mph 54.1 mph N/A   Clear
4:12 AM 30.2 °F 15.9 °F 10.4 °F 44% 29.98 in 10.0 mi WSW 26.5 mph 52.9 mph N/A   Clear
4:33 AM 30.2 °F 18.1 °F 12.2 °F 47% 30.00 in 10.0 mi WSW 18.4 mph 42.6 mph N/A   Clear
4:51 AM 30.2 °F 18.9 °F 12.2 °F 47% 30.01 in 10.0 mi West 16.1 mph 33.4 mph N/A   Clear
5:11 AM 30.2 °F 24.3 °F 12.2 °F 47% 30.02 in 10.0 mi WSW 5.8 mph 27.6 mph N/A   Clear
5:34 AM 28.4 °F 19.1 °F 14.0 °F 55% 30.03 in 10.0 mi North 10.4 mph 21.9 mph N/A   Mostly Cloudy
5:52 AM 28.4 °F 21.2 °F 14.0 °F 55% 30.03 in 10.0 mi NE 6.9 mph 25.3 mph N/A   Mostly Cloudy
6:11 AM 28.4 °F 22.2 °F 14.0 °F 55% 30.07 in 10.0 mi East 5.8 mph - N/A   Mostly Cloudy
6:32 AM 30.2 °F 25.4 °F 14.0 °F 51% 30.07 in 10.0 mi NNW 4.6 mph - N/A   Scattered Clouds
6:54 AM 32.0 °F 20.5 °F 14.0 °F 48% 30.09 in 10.0 mi WSW 18.4 mph 31.1 mph N/A   Clear
7:14 AM 32.0 °F 19.8 °F 14.0 °F 48% 30.10 in 10.0 mi West 20.7 mph 31.1 mph N/A   Clear
7:32 AM 32.0 °F 22.1 °F 14.0 °F 48% 30.10 in 10.0 mi West 13.8 mph 27.6 mph N/A   Clear
7:54 AM 32.0 °F 25.6 °F 14.0 °F 48% 30.11 in 10.0 mi NNW 6.9 mph 27.6 mph N/A   Clear
8:11 AM 32.0 °F 20.1 °F 14.0 °F 48% 30.12 in 10.0 mi WNW 19.6 mph 26.5 mph N/A   Clear
8:34 AM 32.0 °F 24.2 °F 14.0 °F 48% 30.12 in 10.0 mi NNW 9.2 mph 23.0 mph N/A   Clear
8:52 AM 33.8 °F 24.3 °F 14.0 °F 44% 30.12 in 10.0 mi NW 13.8 mph 34.5 mph N/A   Clear
9:09 AM 33.8 °F 23.2 °F 14.0 °F 44% 30.13 in 10.0 mi NW 17.3 mph 33.4 mph N/A   Clear
9:32 AM 33.8 °F 23.2 °F 12.2 °F 41% 30.15 in 10.0 mi NW 17.3 mph 29.9 mph N/A   Clear
9:52 AM 35.6 °F 27.1 °F 12.2 °F 38% 30.15 in 10.0 mi NNW 12.7 mph 29.9 mph N/A   Clear
10:12 AM 35.6 °F 29.2 °F 14.0 °F 41% 30.15 in 10.0 mi NNW 8.1 mph 18.4 mph N/A   Clear
10:35 AM 35.6 °F 29.2 °F 12.2 °F 38% 30.15 in 10.0 mi NNW 8.1 mph - N/A   Clear
10:52 AM 39.2 °F 37.0 °F 12.2 °F 33% 30.16 in 10.0 mi WSW 3.5 mph - N/A   Clear
11:12 AM 41.0 °F 38.0 °F 14.0 °F 33% 30.15 in 10.0 mi SE 4.6 mph - N/A   Clear
11:32 AM 39.2 °F - 15.8 °F 39% 30.15 in 10.0 mi Calm Calm - N/A   Clear
11:52 AM 39.2 °F 35.9 °F 15.8 °F 39% 30.13 in 10.0 mi SSE 4.6 mph - N/A   Clear
12:12 PM 41.0 °F 39.0 °F 15.8 °F 36% 30.12 in 10.0 mi ESE 3.5 mph - N/A   Clear
12:32 PM 41.0 °F 39.0 °F 14.0 °F 33% 30.11 in 10.0 mi SE 3.5 mph - N/A   Clear
12:51 PM 41.0 °F 39.0 °F 15.8 °F 36% 30.11 in 10.0 mi South 3.5 mph - N/A   Clear
1:11 PM 42.8 °F 38.6 °F 14.0 °F 31% 30.09 in 10.0 mi West 6.9 mph - N/A   Clear
1:32 PM 42.8 °F 36.6 °F 14.0 °F 31% 30.08 in 10.0 mi West 11.5 mph 21.9 mph N/A   Clear
1:51 PM 42.8 °F 34.0 °F 14.0 °F 31% 30.05 in 10.0 mi West 20.7 mph 32.2 mph N/A   Clear
2:14 PM 41.0 °F 30.0 °F 12.2 °F 31% 30.05 in 10.0 mi West 28.8 mph 48.3 mph N/A   Clear
2:32 PM 42.8 °F 34.5 °F 14.0 °F 31% 30.04 in 10.0 mi West 18.4 mph 41.4 mph N/A   Clear
2:51 PM 41.0 °F 38.0 °F 14.0 °F 33% 30.04 in 10.0 mi NW 4.6 mph 26.5 mph N/A   Clear
3:12 PM 41.0 °F 34.7 °F 15.8 °F 36% 30.03 in 10.0 mi NW 10.4 mph 21.9 mph N/A   Clear
3:31 PM 41.0 °F 33.9 °F 15.8 °F 36% 30.03 in 10.0 mi WNW 12.7 mph 29.9 mph N/A   Clear
3:51 PM 41.0 °F 33.9 °F 15.8 °F 36% 30.02 in 10.0 mi West 12.7 mph 28.8 mph N/A   Clear
4:13 PM 41.0 °F 34.7 °F 12.2 °F 31% 30.02 in 10.0 mi West 10.4 mph 36.8 mph N/A   Clear
4:32 PM 37.4 °F 32.8 °F 14.0 °F 38% 30.02 in 10.0 mi NW 5.8 mph 16.1 mph N/A   Clear
4:51 PM 37.4 °F 29.8 °F 14.0 °F 38% 30.01 in 10.0 mi West 11.5 mph 18.4 mph N/A   Clear
5:12 PM 35.6 °F 26.6 °F 15.8 °F 44% 30.00 in 10.0 mi NW 13.8 mph 19.6 mph N/A   Clear
5:32 PM 35.6 °F 29.9 °F 15.8 °F 44% 30.00 in 10.0 mi NW 6.9 mph 19.6 mph N/A   Clear
5:51 PM 35.6 °F 29.9 °F 17.6 °F 48% 30.00 in 10.0 mi West 6.9 mph - N/A   Clear
6:12 PM 35.6 °F 26.6 °F 17.6 °F 48% 29.98 in 10.0 mi WNW 13.8 mph 21.9 mph N/A   Clear
6:32 PM 35.6 °F 28.0 °F 17.6 °F 48% 29.99 in 10.0 mi WNW 10.4 mph 29.9 mph N/A   Clear
6:52 PM 35.6 °F 29.2 °F 17.6 °F 48% 29.99 in 10.0 mi WNW 8.1 mph 20.7 mph N/A   Clear
7:12 PM 35.6 °F 31.7 °F 15.8 °F 44% 30.00 in 10.0 mi SW 4.6 mph 19.6 mph N/A   Clear
7:30 PM 35.6 °F 30.7 °F 17.6 °F 48% 29.98 in 10.0 mi NW 5.8 mph - N/A   Clear
7:51 PM 33.8 °F 27.0 °F 17.6 °F 52% 29.98 in 10.0 mi WNW 8.1 mph 18.4 mph N/A   Clear
8:11 PM 35.6 °F 28.6 °F 17.6 °F 48% 29.97 in 10.0 mi WNW 9.2 mph 23.0 mph N/A   Clear
8:32 PM 33.8 °F 27.0 °F 17.6 °F 52% 29.97 in 10.0 mi West 8.1 mph 18.4 mph N/A   Clear
8:51 PM 33.8 °F 24.3 °F 17.6 °F 52% 29.96 in 10.0 mi West 13.8 mph 26.5 mph N/A   Clear
9:12 PM 33.8 °F 27.0 °F 17.6 °F 52% 29.96 in 10.0 mi West 8.1 mph 25.3 mph N/A   Clear
9:32 PM 33.8 °F 23.5 °F 17.6 °F 52% 29.94 in 10.0 mi West 16.1 mph 28.8 mph N/A   Clear
9:51 PM 33.8 °F 25.3 °F 17.6 °F 52% 29.93 in 10.0 mi WSW 11.5 mph 28.8 mph N/A   Clear
10:15 PM 33.8 °F 23.5 °F 17.6 °F 52% 29.92 in 10.0 mi West 16.1 mph 27.6 mph N/A   Clear
10:32 PM 35.6 °F 24.8 °F 14.0 °F 41% 29.91 in 10.0 mi WSW 19.6 mph 32.2 mph N/A   Clear
10:51 PM 33.8 °F 23.2 °F 17.6 °F 52% 29.89 in 10.0 mi WNW 17.3 mph 32.2 mph N/A   Clear
11:12 PM 33.8 °F 23.9 °F 15.8 °F 48% 29.87 in 10.0 mi West 15.0 mph 34.5 mph N/A   Clear
11:32 PM 35.6 °F 25.2 °F 14.0 °F 41% 29.86 in 10.0 mi West 18.4 mph 35.7 mph N/A   Clear
11:52 PM 33.8 °F 23.2 °F 14.0 °F 44% 29.85 in 10.0 mi West 17.3 mph 31.1 mph N/A   Clear